| time (UTC) | temp F | wind direction | speed MPH | gust MPH | rain 1hr in | rain 24hr in | rain mn in | humidity % | barometer mb |
| 20260502222723 | 75 | 66 | 5.0 | 9.0 | 0.00 | 0.00 | 0.00 | 50 | 1017.1 |
| 20260502222227 | 76 | 37 | 4.0 | 9.0 | 0.00 | 0.01 | 0.00 | 49 | 1017.0 |
| 20260502221723 | 76 | 1 | 4.0 | 9.0 | 0.00 | 0.01 | 0.00 | 49 | 1017.1 |
| 20260502221239 | 75 | 345 | 4.0 | 8.0 | 0.00 | 0.01 | 0.00 | 49 | 1017.2 |
| 20260502220724 | 75 | 86 | 4.0 | 8.0 | 0.00 | 0.01 | 0.00 | 49 | 1017.1 |
| 20260502220223 | 75 | 78 | 4.0 | 9.0 | 0.00 | 0.01 | 0.00 | 50 | 1017.1 |
| 20260502215220 | 76 | 51 | 4.0 | 9.0 | 0.00 | 0.01 | 0.00 | 48 | 1017.1 |
| 20260502214719 | 75 | 96 | 5.0 | 9.0 | 0.00 | 0.01 | 0.00 | 49 | 1017.1 |
| 20260502214221 | 75 | 51 | 5.0 | 13.0 | 0.00 | 0.01 | 0.00 | 49 | 1017.2 |
| 20260502213720 | 75 | 89 | 5.0 | 13.0 | 0.00 | 0.01 | 0.00 | 49 | 1017.2 |
| 20260502213221 | 76 | 61 | 5.0 | 9.0 | 0.00 | 0.01 | 0.00 | 48 | 1017.3 |
| 20260502212720 | 75 | 54 | 5.0 | 9.0 | 0.00 | 0.01 | 0.00 | 48 | 1017.2 |
| 20260502212221 | 75 | 64 | 5.0 | 9.0 | 0.00 | 0.01 | 0.00 | 48 | 1017.3 |
| 20260502211719 | 75 | 75 | 5.0 | 11.0 | 0.00 | 0.01 | 0.00 | 48 | 1017.2 |
| 20260502211221 | 75 | 91 | 5.0 | 11.0 | 0.00 | 0.01 | 0.00 | 48 | 1017.3 |
| 20260502210720 | 74 | 86 | 5.0 | 11.0 | 0.00 | 0.01 | 0.00 | 50 | 1017.3 |
| 20260502210221 | 75 | 62 | 5.0 | 9.0 | 0.00 | 0.01 | 0.00 | 51 | 1017.4 |
| 20260502205720 | 75 | 59 | 5.0 | 9.0 | 0.00 | 0.01 | 0.00 | 49 | 1017.5 |
| 20260502205220 | 75 | 27 | 4.0 | 9.0 | 0.00 | 0.01 | 0.00 | 50 | 1017.6 |
| 20260502204217 | 74 | 58 | 5.0 | 9.0 | 0.00 | 0.01 | 0.00 | 50 | 1017.8 |
| 20260502203715 | 75 | 48 | 4.0 | 8.0 | 0.00 | 0.01 | 0.00 | 50 | 1017.8 |
| 20260502203217 | 75 | 355 | 5.0 | 10.0 | 0.00 | 0.01 | 0.00 | 51 | 1017.9 |
| 20260502202716 | 75 | 55 | 5.0 | 10.0 | 0.00 | 0.01 | 0.00 | 50 | 1017.9 |
| 20260502202217 | 74 | 41 | 5.0 | 11.0 | 0.00 | 0.01 | 0.00 | 52 | 1017.8 |
| 20260502201716 | 74 | 50 | 5.0 | 11.0 | 0.00 | 0.01 | 0.00 | 52 | 1018.0 |
| 20260502201217 | 75 | 77 | 4.0 | 9.0 | 0.00 | 0.01 | 0.00 | 51 | 1018.0 |
| 20260502200716 | 75 | 53 | 5.0 | 10.0 | 0.00 | 0.01 | 0.00 | 52 | 1018.1 |
| 20260502195716 | 75 | 83 | 4.0 | 8.0 | 0.00 | 0.01 | 0.00 | 51 | 1018.2 |
| 20260502195218 | 74 | 14 | 4.0 | 12.0 | 0.00 | 0.01 | 0.00 | 51 | 1018.3 |
| 20260502194716 | 74 | 29 | 5.0 | 12.0 | 0.00 | 0.01 | 0.00 | 53 | 1018.4 |
| 20260502194217 | 74 | 80 | 5.0 | 9.0 | 0.00 | 0.01 | 0.00 | 51 | 1018.4 |
| 20260502193717 | 74 | 37 | 6.0 | 13.0 | 0.00 | 0.01 | 0.00 | 52 | 1018.3 |
| 20260502193215 | 74 | 7 | 5.0 | 13.0 | 0.00 | 0.02 | 0.00 | 53 | 1018.4 |
| 20260502192712 | 74 | 21 | 4.0 | 11.0 | 0.00 | 0.02 | 0.00 | 53 | 1018.3 |
| 20260502192212 | 74 | 44 | 5.0 | 11.0 | 0.00 | 0.02 | 0.00 | 54 | 1018.3 |
| 20260502191213 | 73 | 31 | 5.0 | 11.0 | 0.00 | 0.02 | 0.00 | 57 | 1018.5 |
| 20260502190713 | 73 | 61 | 5.0 | 13.0 | 0.00 | 0.02 | 0.00 | 56 | 1018.3 |
| 20260502185213 | 73 | 315 | 5.0 | 11.0 | 0.00 | 0.02 | 0.00 | 59 | 1018.6 |
| 20260502184713 | 72 | 33 | 5.0 | 11.0 | 0.00 | 0.02 | 0.00 | 59 | 1018.6 |
| 20260502183713 | 72 | 35 | 4.0 | 9.0 | 0.00 | 0.02 | 0.00 | 63 | 1018.7 |
| 20260502183213 | 72 | 327 | 4.0 | 9.0 | 0.00 | 0.02 | 0.00 | 64 | 1018.8 |
| 20260502182710 | 71 | 41 | 4.0 | 8.0 | 0.00 | 0.02 | 0.00 | 64 | 1018.9 |
| 20260502182207 | 71 | 26 | 4.0 | 10.0 | 0.00 | 0.02 | 0.00 | 66 | 1018.9 |
| 20260502181706 | 71 | 102 | 4.0 | 10.0 | 0.00 | 0.02 | 0.00 | 66 | 1019.1 |
| 20260502181206 | 70 | 348 | 4.0 | 11.0 | 0.00 | 0.02 | 0.00 | 67 | 1019.1 |
| 20260502180205 | 69 | 351 | 4.0 | 11.0 | 0.00 | 0.02 | 0.00 | 67 | 1019.2 |
| 20260502170153 | 64 | 302 | 4.0 | 9.0 | 0.00 | 0.02 | 0.00 | 78 | 1019.8 |
| 20260502164147 | 62 | 3 | 4.0 | 9.0 | 0.00 | 0.02 | 0.00 | 81 | 1019.9 |
| 20260502163648 | 63 | 352 | 4.0 | 9.0 | 0.00 | 0.02 | 0.00 | 80 | 1019.9 |
| 20260502163148 | 62 | 40 | 4.0 | 8.0 | 0.00 | 0.02 | 0.00 | 81 | 1019.9 |
| 20260502162647 | 62 | 324 | 4.0 | 8.0 | 0.00 | 0.02 | 0.00 | 81 | 1019.9 |
| 20260502162147 | 62 | 348 | 4.0 | 8.0 | 0.00 | 0.02 | 0.00 | 82 | 1019.9 |
| 20260502161647 | 62 | 324 | 4.0 | 7.0 | 0.00 | 0.02 | 0.00 | 81 | 1019.9 |
| 20260502161148 | 62 | 326 | 4.0 | 9.0 | 0.00 | 0.02 | 0.00 | 80 | 1019.9 |
| 20260502160648 | 61 | 343 | 4.0 | 9.0 | 0.00 | 0.02 | 0.00 | 82 | 1019.9 |
| 20260502160148 | 60 | 350 | 4.0 | 9.0 | 0.00 | 0.02 | 0.00 | 83 | 1019.7 |
| 20260502152142 | 59 | 22 | 4.0 | 8.0 | 0.00 | 0.03 | 0.00 | 87 | 1019.4 |
| 20260502151143 | 58 | 25 | 5.0 | 10.0 | 0.00 | 0.06 | 0.00 | 87 | 1019.3 |
| 20260502150643 | 58 | 344 | 6.0 | 12.0 | 0.00 | 0.06 | 0.00 | 87 | 1019.3 |
| 20260502150143 | 58 | 350 | 6.0 | 12.0 | 0.00 | 0.06 | 0.00 | 88 | 1019.3 |
| 20260502130639 | 59 | 354 | 4.0 | 9.0 | 0.00 | 0.07 | 0.00 | 88 | 1017.4 |
| 20260502130138 | 59 | 5 | 4.0 | 9.0 | 0.00 | 0.07 | 0.00 | 88 | 1017.3 |
| 20260502123134 | 59 | 351 | 5.0 | 10.0 | 0.00 | 0.07 | 0.00 | 89 | 1016.7 |
| 20260502122632 | 59 | 345 | 5.0 | 12.0 | 0.00 | 0.07 | 0.00 | 89 | 1016.5 |
| 20260502122132 | 59 | 21 | 5.0 | 12.0 | 0.00 | 0.07 | 0.00 | 89 | 1016.5 |
| 20260502121633 | 59 | 51 | 4.0 | 9.0 | 0.00 | 0.07 | 0.00 | 89 | 1016.6 |
| 20260502121132 | 59 | 330 | 4.0 | 9.0 | 0.00 | 0.07 | 0.00 | 89 | 1016.5 |
| 20260502120632 | 59 | 13 | 4.0 | 8.0 | 0.00 | 0.07 | 0.00 | 90 | 1016.3 |
| 20260502120133 | 59 | 349 | 5.0 | 8.0 | 0.00 | 0.07 | 0.00 | 91 | 1016.2 |
| 20260502115132 | 59 | 354 | 5.0 | 8.0 | 0.00 | 0.07 | 0.00 | 91 | 1016.0 |
| 20260502114633 | 59 | 335 | 6.0 | 10.0 | 0.00 | 0.07 | 0.00 | 91 | 1015.9 |
| 20260502114132 | 59 | 332 | 6.0 | 13.0 | 0.00 | 0.07 | 0.00 | 91 | 1015.8 |
| 20260502113633 | 59 | 315 | 6.0 | 13.0 | 0.00 | 0.07 | 0.00 | 91 | 1015.7 |
| 20260502113133 | 59 | 321 | 5.0 | 10.0 | 0.00 | 0.07 | 0.00 | 91 | 1015.6 |
| 20260502112633 | 59 | 346 | 6.0 | 10.0 | 0.00 | 0.07 | 0.00 | 91 | 1015.6 |
| 20260502112133 | 59 | 328 | 6.0 | 10.0 | 0.00 | 0.07 | 0.00 | 91 | 1015.5 |
| 20260502111628 | 59 | 11 | 5.0 | 9.0 | 0.00 | 0.07 | 0.00 | 92 | 1015.4 |
| 20260502111127 | 59 | 341 | 6.0 | 9.0 | 0.00 | 0.07 | 0.00 | 91 | 1015.4 |
| 20260502110627 | 59 | 348 | 6.0 | 9.0 | 0.00 | 0.07 | 0.00 | 91 | 1015.3 |
| 20260502110127 | 59 | 3 | 6.0 | 10.0 | 0.00 | 0.07 | 0.00 | 91 | 1015.3 |
| 20260502105628 | 59 | 6 | 5.0 | 10.0 | 0.00 | 0.07 | 0.00 | 91 | 1015.2 |
| 20260502105127 | 59 | 1 | 5.0 | 11.0 | 0.00 | 0.07 | 0.00 | 91 | 1015.1 |
| 20260502104128 | 59 | 21 | 5.0 | 10.0 | 0.00 | 0.07 | 0.00 | 91 | 1015.1 |
| 20260502103630 | 59 | 343 | 5.0 | 11.0 | 0.00 | 0.07 | 0.00 | 91 | 1015.2 |
| 20260502103127 | 59 | 349 | 5.0 | 11.0 | 0.00 | 0.07 | 0.00 | 90 | 1015.2 |
| 20260502102628 | 59 | 335 | 6.0 | 10.0 | 0.00 | 0.07 | 0.00 | 90 | 1015.1 |
| 20260502102127 | 59 | 50 | 6.0 | 12.0 | 0.00 | 0.07 | 0.00 | 90 | 1015.0 |
| 20260502101625 | 59 | 328 | 6.0 | 12.0 | 0.00 | 0.07 | 0.00 | 90 | 1014.9 |
| 20260502101125 | 59 | 13 | 6.0 | 11.0 | 0.00 | 0.07 | 0.00 | 90 | 1014.6 |
| 20260502100625 | 59 | 330 | 7.0 | 13.0 | 0.00 | 0.07 | 0.00 | 90 | 1014.7 |
| 20260502100125 | 59 | 353 | 7.0 | 13.0 | 0.00 | 0.07 | 0.00 | 90 | 1014.9 |
| 20260502091117 | 60 | 359 | 5.0 | 9.0 | 0.00 | 0.07 | 0.00 | 90 | 1015.2 |
| 20260502090617 | 60 | 355 | 6.0 | 9.0 | 0.00 | 0.07 | 0.00 | 90 | 1015.1 |
| 20260502090116 | 60 | 1 | 6.0 | 11.0 | 0.00 | 0.07 | 0.00 | 90 | 1014.9 |
| 20260502071108 | 61 | 325 | 4.0 | 8.0 | 0.00 | 0.07 | 0.00 | 91 | 1015.0 |
| 20260502070106 | 61 | 326 | 5.0 | 10.0 | 0.00 | 0.07 | 0.00 | 91 | 1014.5 |
| 20260502065100 | 61 | 313 | 5.0 | 8.0 | 0.00 | 0.07 | 0.00 | 91 | 1014.7 |
| 20260502064600 | 61 | 339 | 5.0 | 10.0 | 0.00 | 0.07 | 0.00 | 91 | 1014.6 |
| 20260502063554 | 61 | 340 | 6.0 | 12.0 | 0.00 | 0.07 | 0.00 | 91 | 1014.6 |
| 20260502063054 | 61 | 342 | 5.0 | 12.0 | 0.00 | 0.07 | 0.00 | 91 | 1014.6 |
| 20260502062554 | 62 | 312 | 4.0 | 7.0 | 0.00 | 0.07 | 0.00 | 91 | 1014.5 |
| 20260502062054 | 62 | 328 | 4.0 | 9.0 | 0.00 | 0.07 | 0.00 | 90 | 1014.7 |
| 20260502061054 | 62 | 342 | 4.0 | 10.0 | 0.00 | 0.07 | 0.00 | 90 | 1014.5 |
| 20260502060054 | 62 | 351 | 6.0 | 14.0 | 0.00 | 0.07 | 0.00 | 90 | 1014.3 |
| 20260502055054 | 62 | 4 | 5.0 | 9.0 | 0.00 | 0.07 | 0.00 | 90 | 1014.4 |
| 20260502054554 | 62 | 321 | 6.0 | 10.0 | 0.00 | 0.07 | 0.00 | 90 | 1014.5 |
| 20260502054056 | 62 | 21 | 7.0 | 10.0 | 0.00 | 0.07 | 0.00 | 89 | 1014.4 |
| 20260502053555 | 62 | 312 | 6.0 | 10.0 | 0.00 | 0.07 | 0.00 | 89 | 1014.4 |
| 20260502052555 | 62 | 7 | 4.0 | 9.0 | 0.00 | 0.07 | 0.00 | 90 | 1014.4 |
| 20260502052055 | 62 | 350 | 4.0 | 8.0 | 0.00 | 0.07 | 0.00 | 90 | 1014.4 |
| 20260502051554 | 62 | 336 | 4.0 | 8.0 | 0.00 | 0.07 | 0.00 | 90 | 1014.3 |
| 20260502051049 | 62 | 344 | 4.0 | 10.0 | 0.00 | 0.07 | 0.00 | 90 | 1014.2 |
| 20260502050049 | 62 | 29 | 5.0 | 10.0 | 0.00 | 0.07 | 0.00 | 89 | 1014.0 |
| 20260502045549 | 62 | 9 | 5.0 | 10.0 | 0.00 | 0.07 | 0.07 | 90 | 1013.8 |
| 20260502045043 | 62 | 337 | 5.0 | 9.0 | 0.00 | 0.07 | 0.07 | 90 | 1013.8 |
| 20260502044543 | 62 | 333 | 5.0 | 11.0 | 0.00 | 0.07 | 0.07 | 90 | 1013.7 |
| 20260502044043 | 63 | 327 | 5.0 | 11.0 | 0.00 | 0.07 | 0.07 | 89 | 1013.7 |
| 20260502043544 | 63 | 343 | 5.0 | 11.0 | 0.00 | 0.07 | 0.07 | 90 | 1013.5 |
| 20260502043044 | 63 | 13 | 6.0 | 11.0 | 0.00 | 0.07 | 0.07 | 90 | 1013.4 |
| 20260502042543 | 63 | 350 | 5.0 | 11.0 | 0.00 | 0.07 | 0.07 | 90 | 1013.4 |
| 20260502042044 | 63 | 349 | 5.0 | 11.0 | 0.00 | 0.07 | 0.07 | 90 | 1013.2 |
| 20260502041544 | 63 | 3 | 5.0 | 9.0 | 0.00 | 0.07 | 0.07 | 90 | 1013.2 |
| 20260502041043 | 63 | 41 | 5.0 | 9.0 | 0.00 | 0.07 | 0.07 | 90 | 1013.2 |
| 20260502040544 | 63 | 335 | 5.0 | 10.0 | 0.00 | 0.07 | 0.07 | 90 | 1013.1 |
| 20260502040043 | 63 | 350 | 5.0 | 10.0 | 0.00 | 0.07 | 0.07 | 90 | 1013.1 |
| 20260502035044 | 63 | 56 | 6.0 | 13.0 | 0.00 | 0.07 | 0.07 | 90 | 1012.9 |
| 20260502033544 | 63 | 341 | 5.0 | 8.0 | 0.00 | 0.07 | 0.07 | 91 | 1012.8 |
| 20260502032038 | 63 | 307 | 5.0 | 9.0 | 0.00 | 0.07 | 0.07 | 91 | 1012.4 |
| 20260502031538 | 63 | 352 | 5.0 | 10.0 | 0.00 | 0.07 | 0.07 | 91 | 1012.3 |
| 20260502030538 | 64 | 6 | 5.0 | 11.0 | 0.00 | 0.07 | 0.07 | 91 | 1012.2 |
| 20260502030038 | 64 | 352 | 5.0 | 9.0 | 0.00 | 0.07 | 0.07 | 91 | 1012.0 |
| 20260502025539 | 64 | 322 | 6.0 | 9.0 | 0.00 | 0.07 | 0.07 | 91 | 1012.0 |
| 20260502025038 | 64 | 332 | 6.0 | 9.0 | 0.00 | 0.07 | 0.07 | 91 | 1011.8 |
| 20260502024538 | 64 | 350 | 5.0 | 9.0 | 0.00 | 0.07 | 0.07 | 91 | 1011.6 |
| 20260502024038 | 64 | 19 | 6.0 | 10.0 | 0.00 | 0.07 | 0.07 | 91 | 1011.4 |
| 20260502023538 | 64 | 102 | 6.0 | 10.0 | 0.00 | 0.07 | 0.07 | 91 | 1011.2 |
| 20260502022539 | 64 | 351 | 6.0 | 13.0 | 0.00 | 0.07 | 0.07 | 92 | 1010.8 |
| 20260502022038 | 64 | 27 | 6.0 | 9.0 | 0.00 | 0.07 | 0.07 | 91 | 1010.4 |
| 20260502021538 | 64 | 353 | 6.0 | 9.0 | 0.00 | 0.07 | 0.07 | 92 | 1010.5 |
| 20260502021033 | 64 | 165 | 5.0 | 9.0 | 0.00 | 0.07 | 0.07 | 92 | 1010.3 |
| 20260502020034 | 64 | 1 | 5.0 | 9.0 | 0.00 | 0.07 | 0.07 | 92 | 1010.0 |
| 20260502015533 | 64 | 44 | 5.0 | 9.0 | 0.00 | 0.07 | 0.07 | 92 | 1009.7 |
| 20260502015033 | 64 | 35 | 4.0 | 9.0 | 0.00 | 0.07 | 0.07 | 92 | 1009.5 |
| 20260502014534 | 64 | 47 | 5.0 | 10.0 | 0.00 | 0.07 | 0.07 | 92 | 1009.5 |
| 20260502014034 | 65 | 30 | 5.0 | 10.0 | 0.00 | 0.07 | 0.07 | 92 | 1009.3 |
| 20260502013533 | 65 | 11 | 5.0 | 9.0 | 0.00 | 0.07 | 0.07 | 92 | 1009.0 |
| 20260502013034 | 65 | 34 | 5.0 | 10.0 | 0.00 | 0.07 | 0.07 | 92 | 1009.1 |
| 20260502012533 | 65 | 41 | 5.0 | 11.0 | 0.00 | 0.07 | 0.07 | 91 | 1009.0 |
| 20260502012034 | 65 | 26 | 5.0 | 11.0 | 0.00 | 0.07 | 0.07 | 91 | 1009.0 |
| 20260502011533 | 65 | 6 | 5.0 | 11.0 | 0.00 | 0.07 | 0.07 | 91 | 1009.0 |
| 20260502011034 | 65 | 26 | 5.0 | 8.0 | 0.00 | 0.07 | 0.07 | 91 | 1008.8 |
| 20260502010534 | 65 | 26 | 4.0 | 8.0 | 0.00 | 0.07 | 0.07 | 92 | 1008.4 |
| 20260502005530 | 66 | 26 | 4.0 | 9.0 | 0.00 | 0.07 | 0.07 | 92 | 1008.5 |
| 20260502005031 | 66 | 357 | 5.0 | 9.0 | 0.00 | 0.07 | 0.07 | 92 | 1008.4 |
| 20260502004522 | 66 | 333 | 5.0 | 9.0 | 0.00 | 0.07 | 0.07 | 92 | 1008.3 |
| 20260502004023 | 66 | 31 | 5.0 | 9.0 | 0.00 | 0.07 | 0.07 | 92 | 1008.4 |
| 20260502003023 | 66 | 15 | 5.0 | 9.0 | 0.00 | 0.07 | 0.07 | 93 | 1008.4 |
| 20260502002522 | 66 | 23 | 5.0 | 9.0 | 0.00 | 0.07 | 0.07 | 92 | 1008.2 |
| 20260502001523 | 66 | 323 | 5.0 | 9.0 | 0.00 | 0.07 | 0.07 | 93 | 1008.2 |
| 20260502001023 | 66 | 354 | 5.0 | 13.0 | 0.00 | 0.07 | 0.07 | 93 | 1008.3 |
| 20260502000523 | 66 | 7 | 6.0 | 13.0 | 0.00 | 0.07 | 0.07 | 94 | 1008.4 |
| 20260502000022 | 66 | 16 | 6.0 | 11.0 | 0.00 | 0.07 | 0.07 | 95 | 1008.2 |
| 20260501235523 | 66 | 343 | 5.0 | 9.0 | 0.00 | 0.07 | 0.07 | 96 | 1008.3 |
| 20260501235023 | 66 | 344 | 5.0 | 12.0 | 0.00 | 0.07 | 0.07 | 96 | 1008.3 |
| 20260501234523 | 66 | 281 | 6.0 | 12.0 | 0.00 | 0.07 | 0.07 | 96 | 1008.2 |
| 20260501234027 | 66 | 4 | 5.0 | 10.0 | 0.00 | 0.07 | 0.07 | 96 | 1008.3 |
| 20260501233517 | 66 | 24 | 5.0 | 8.0 | 0.00 | 0.07 | 0.07 | 97 | 1008.2 |
| 20260501233017 | 67 | 26 | 4.0 | 8.0 | 0.00 | 0.07 | 0.07 | 97 | 1008.1 |
| 20260501232011 | 66 | 206 | 4.0 | 9.0 | 0.01 | 0.07 | 0.07 | 98 | 1008.1 |
| 20260501231511 | 66 | 70 | 4.0 | 9.0 | 0.01 | 0.07 | 0.07 | 98 | 1008.0 |
| 20260501231011 | 66 | 95 | 5.0 | 9.0 | 0.01 | 0.07 | 0.07 | 98 | 1007.8 |
| 20260501230011 | 67 | 335 | 4.0 | 9.0 | 0.01 | 0.07 | 0.07 | 98 | 1007.7 |
| 20260501225512 | 67 | 356 | 4.0 | 9.0 | 0.01 | 0.07 | 0.07 | 98 | 1007.5 |
| 20260501225011 | 67 | 359 | 4.0 | 11.0 | 0.01 | 0.07 | 0.07 | 98 | 1007.4 |
| 20260501224512 | 67 | 194 | 5.0 | 11.0 | 0.01 | 0.07 | 0.07 | 97 | 1007.4 |
| 20260501223512 | 67 | 20 | 5.0 | 12.0 | 0.01 | 0.07 | 0.07 | 97 | 1007.1 |